• Em Portugal
  • Lista de países
  • Para 7 dias
  • Temperatura da água
  • Mapas de satélite
  • Mapa do tempo
  • Widgets de tempo
  • user-avatar
    Iniciar Sessão

    Previsão horária em Satif

    Hoje, 16 Dezembro, Sábado

    Tempo Temperatura Precipitação Vento Pressão Humidade
    00:00 +5°C° 0 mm 3 m/s 666 mmHg 85%
    01:00 +6°C° 0,1 mm 2 m/s 666 mmHg 87%
    02:00 +6°C° 0,1 mm 2 m/s 666 mmHg 88%
    03:00 +6°C° 0,1 mm 2 m/s 666 mmHg 90%
    04:00 +6°C° 0,7 mm 2 m/s 666 mmHg 91%
    05:00 +6°C° 0,7 mm 2 m/s 666 mmHg 91%
    06:00 +6°C° 0 mm 2 m/s 666 mmHg 93%
    07:00 +7°C° 0,6 mm 2 m/s 667 mmHg 91%
    08:00 +7°C° 0,6 mm 2 m/s 667 mmHg 89%
    09:00 +7°C° 0,6 mm 2 m/s 668 mmHg 88%
    10:00 +7°C° 0,2 mm 3 m/s 668 mmHg 83%
    11:00 +8°C° 0,2 mm 3 m/s 669 mmHg 78%
    12:00 +8°C° 0,2 mm 3 m/s 669 mmHg 73%
    13:00 +8°C° 0,1 mm 3 m/s 669 mmHg 70%
    14:00 +7°C° 0,1 mm 4 m/s 669 mmHg 67%
    15:00 +7°C° 0,1 mm 4 m/s 669 mmHg 64%
    16:00 +5°C° 0,1 mm 3 m/s 670 mmHg 69%
    17:00 +4°C° 0,1 mm 3 m/s 670 mmHg 75%
    18:00 +3°C° 0,1 mm 3 m/s 670 mmHg 80%
    19:00 +4°C° 0,1 mm 2 m/s 671 mmHg 83%
    20:00 +4°C° 0,1 mm 2 m/s 671 mmHg 85%
    21:00 +3°C° 0,1 mm 2 m/s 672 mmHg 87%
    22:00 +3°C° 0,1 mm 2 m/s 672 mmHg 88%
    23:00 +3°C° 0,1 mm 2 m/s 672 mmHg 88%

    Amanhã, 17 Dezembro, Domingo

    Tempo Temperatura Precipitação Vento Pressão Humidade
    00:00 +3°C° 0,1 mm 2 m/s 673 mmHg 89%
    01:00 +3°C° 0,1 mm 2 m/s 673 mmHg 89%
    02:00 +3°C° 0,1 mm 2 m/s 673 mmHg 88%
    03:00 +4°C° 0,1 mm 1 m/s 673 mmHg 88%
    04:00 +3°C° 0 mm 1 m/s 673 mmHg 89%
    05:00 +3°C° 0 mm 1 m/s 673 mmHg 90%
    06:00 +2°C° 0 mm 1 m/s 673 mmHg 91%
    07:00 +3°C° 0 mm 1 m/s 674 mmHg 86%
    08:00 +4°C° 0 mm 1 m/s 675 mmHg 81%
    09:00 +5°C° 0 mm 1 m/s 675 mmHg 76%
    10:00 +5°C° 0 mm 1 m/s 675 mmHg 71%
    11:00 +5°C° 0 mm 2 m/s 675 mmHg 66%
    12:00 +6°C° 0 mm 2 m/s 676 mmHg 61%
    13:00 +5°C° 0,2 mm 2 m/s 676 mmHg 64%
    14:00 +4°C° 0,2 mm 3 m/s 676 mmHg 66%
    15:00 +4°C° 0,2 mm 3 m/s 676 mmHg 69%
    16:00 +4°C° 0,4 mm 3 m/s 676 mmHg 73%
    17:00 +3°C° 0,4 mm 3 m/s 676 mmHg 78%
    18:00 +2°C° 0,4 mm 3 m/s 676 mmHg 82%
    19:00 +2°C° 0,1 mm 3 m/s 677 mmHg 82%
    20:00 +2°C° 0,1 mm 3 m/s 677 mmHg 82%
    21:00 +2°C° 0,1 mm 3 m/s 678 mmHg 82%
    22:00 +2°C° 0,1 mm 2 m/s 678 mmHg 84%
    23:00 +2°C° 0,1 mm 2 m/s 678 mmHg 86%

    Depois de amanhã, 18 Dezembro, Segunda-feira

    Tempo Temperatura Precipitação Vento Pressão Humidade
    00:00 +1°C° 0,1 mm 2 m/s 678 mmHg 89%
    01:00 +1°C° 0,1 mm 2 m/s 678 mmHg 89%
    02:00 +1°C° 0,1 mm 2 m/s 678 mmHg 89%
    03:00 +1°C° 0,1 mm 2 m/s 678 mmHg 89%
    04:00 +1°C° 0,1 mm 2 m/s 678 mmHg 89%
    05:00 +1°C° 0,1 mm 2 m/s 678 mmHg 89%
    06:00 +1°C° 0,1 mm 2 m/s 678 mmHg 90%
    07:00 +2°C° 0,1 mm 2 m/s 678 mmHg 86%
    08:00 +2°C° 0,1 mm 2 m/s 679 mmHg 83%
    09:00 +2°C° 0,1 mm 3 m/s 679 mmHg 80%
    10:00 +3°C° 0,1 mm 3 m/s 679 mmHg 77%
    11:00 +3°C° 0,1 mm 3 m/s 679 mmHg 75%
    12:00 +4°C° 0,1 mm 3 m/s 678 mmHg 72%
    13:00 +4°C° 0,1 mm 3 m/s 678 mmHg 72%
    14:00 +4°C° 0,1 mm 3 m/s 678 mmHg 72%
    15:00 +4°C° 0,1 mm 3 m/s 678 mmHg 73%
    16:00 +3°C° 0,1 mm 3 m/s 678 mmHg 76%
    17:00 +3°C° 0,1 mm 3 m/s 678 mmHg 79%
    18:00 +3°C° 0,1 mm 2 m/s 677 mmHg 83%
    19:00 +3°C° 0 mm 2 m/s 677 mmHg 84%
    20:00 +3°C° 0 mm 2 m/s 677 mmHg 86%
    21:00 +2°C° 0 mm 2 m/s 677 mmHg 87%
    22:00 +2°C° 0 mm 2 m/s 677 mmHg 88%
    23:00 +2°C° 0 mm 2 m/s 676 mmHg 88%

    19 Dezembro, Terça-feira

    Tempo Temperatura Precipitação Vento Pressão Humidade
    00:00 +1°C° 0 mm 2 m/s 676 mmHg 89%
    01:00 +1°C° 0 mm 2 m/s 676 mmHg 88%
    02:00 +1°C° 0 mm 2 m/s 675 mmHg 88%
    03:00 +1°C° 0 mm 2 m/s 675 mmHg 88%
    04:00 +1°C° 0,3 mm 2 m/s 675 mmHg 86%
    05:00 +1°C° 0,3 mm 2 m/s 675 mmHg 85%
    06:00 +2°C° 0,3 mm 2 m/s 675 mmHg 83%
    07:00 +2°C° 0,5 mm 2 m/s 675 mmHg 81%
    08:00 +2°C° 0,5 mm 2 m/s 676 mmHg 80%
    09:00 +2°C° 0,5 mm 3 m/s 676 mmHg 78%
    10:00 +2°C° 0,9 mm 3 m/s 676 mmHg 78%
    11:00 +3°C° 0,9 mm 3 m/s 675 mmHg 79%
    12:00 +3°C° 0,9 mm 3 m/s 675 mmHg 79%
    13:00 +3°C° 0,2 mm 3 m/s 675 mmHg 76%
    14:00 +4°C° 0,2 mm 2 m/s 674 mmHg 74%
    15:00 +5°C° 0,2 mm 2 m/s 674 mmHg 72%
    16:00 +4°C° 0 mm 2 m/s 674 mmHg 75%
    17:00 +3°C° 0 mm 2 m/s 674 mmHg 79%
    18:00 +4°C° 0 mm 1 m/s 674 mmHg 82%
    19:00 +3°C° 0 mm 1 m/s 674 mmHg 83%
    20:00 +3°C° 0 mm 1 m/s 675 mmHg 83%
    21:00 +3°C° 0 mm 1 m/s 675 mmHg 84%
    22:00 +3°C° 0 mm 1 m/s 675 mmHg 84%
    23:00 +3°C° 0 mm 1 m/s 675 mmHg 83%

    20 Dezembro, Quarta-feira

    Tempo Temperatura Precipitação Vento Pressão Humidade
    00:00 +3°C° 0 mm 1 m/s 676 mmHg 83%
    01:00 +3°C° 0 mm 1 m/s 676 mmHg 84%
    02:00 +1°C° 0 mm 2 m/s 676 mmHg 85%
    03:00 +1°C° 0 mm 2 m/s 676 mmHg 87%
    04:00 +2°C° 0 mm 1 m/s 676 mmHg 88%
    05:00 +2°C° 0 mm 1 m/s 677 mmHg 88%
    06:00 +1°C° 0 mm 1 m/s 677 mmHg 89%
    07:00 +3°C° 0 mm 1 m/s 678 mmHg 85%
    08:00 +3°C° 0 mm 2 m/s 678 mmHg 82%
    09:00 +4°C° 0 mm 2 m/s 679 mmHg 78%
    10:00 +4°C° 0 mm 3 m/s 679 mmHg 76%
    11:00 +4°C° 0 mm 3 m/s 679 mmHg 74%
    12:00 +5°C° 0 mm 4 m/s 680 mmHg 72%
    13:00 +5°C° 0 mm 4 m/s 680 mmHg 70%
    14:00 +5°C° 0 mm 4 m/s 680 mmHg 69%
    15:00 +5°C° 0 mm 4 m/s 679 mmHg 67%
    16:00 +4°C° 0 mm 3 m/s 680 mmHg 71%
    17:00 +4°C° 0 mm 3 m/s 680 mmHg 75%
    18:00 +4°C° 0 mm 2 m/s 680 mmHg 79%
    19:00 +3°C° 0 mm 2 m/s 680 mmHg 82%
    20:00 +3°C° 0 mm 2 m/s 681 mmHg 84%
    21:00 +2°C° 0 mm 2 m/s 681 mmHg 87%
    22:00 +2°C° 0 mm 2 m/s 681 mmHg 88%
    23:00 +2°C° 0 mm 2 m/s 681 mmHg 90%

    21 Dezembro, Quinta-feira

    Tempo Temperatura Precipitação Vento Pressão Humidade
    00:00 +1°C° 0 mm 2 m/s 681 mmHg 91%
    01:00 +1°C° 0 mm 2 m/s 680 mmHg 92%
    02:00 +1°C° 0 mm 2 m/s 680 mmHg 92%
    03:00 +1°C° 0 mm 2 m/s 680 mmHg 93%
    04:00 +1°C° 0 mm 2 m/s 680 mmHg 93%
    05:00 -1°C° 0 mm 2 m/s 680 mmHg 92%
    06:00 -1°C° 0 mm 2 m/s 680 mmHg 92%
    07:00 +1°C° 0 mm 2 m/s 681 mmHg 86%
    08:00 +1°C° 0 mm 3 m/s 681 mmHg 81%
    09:00 +2°C° 0 mm 3 m/s 682 mmHg 75%
    10:00 +3°C° 0 mm 3 m/s 682 mmHg 68%
    11:00 +4°C° 0 mm 4 m/s 681 mmHg 61%
    12:00 +5°C° 0 mm 4 m/s 681 mmHg 54%
    13:00 +5°C° 0 mm 4 m/s 681 mmHg 53%
    14:00 +6°C° 0 mm 4 m/s 681 mmHg 53%
    15:00 +6°C° 0 mm 4 m/s 681 mmHg 52%
    16:00 +5°C° 0 mm 4 m/s 681 mmHg 59%
    17:00 +3°C° 0 mm 3 m/s 680 mmHg 66%
    18:00 +2°C° 0 mm 3 m/s 680 mmHg 73%
    19:00 +2°C° 0 mm 3 m/s 680 mmHg 75%
    20:00 +2°C° 0 mm 3 m/s 681 mmHg 77%
    21:00 +3°C° 0 mm 2 m/s 681 mmHg 79%
    22:00 +3°C° 0 mm 2 m/s 681 mmHg 80%
    23:00 +3°C° 0 mm 2 m/s 680 mmHg 81%
    Mostrar mais